BCS4126 EDDP-LOWL

Flight info

Callsign BCS4126
Flight time 0h 41m
Altitude 27000
Route GOLAT2N GOLAT T202 ALOSO T703 DEXIT DEXIT2K
Aircraft A321/M-SDE3FGHIRWY/LB1

Departure

Time 2026-04-20 14:15
Airport Leipzig/Halle Airport (EDDP)

Arrival

Time 2026-04-20 14:57
Airport Linz-Hörsching Airport (LOWL)
Time Latitude Longitude Altitude Speed Heading
2026-04-20 13:58 51.40886 12.24345 462 ft 0 kts 84°
2026-04-20 14:07 51.40884 12.24318 462 ft 4 kts 84°
2026-04-20 14:08 51.40881 12.24278 461 ft 4 kts 78°
2026-04-20 14:08 51.40872 12.24246 458 ft 4 kts 25°
2026-04-20 14:08 51.40848 12.24239 463 ft 3 kts 356°
2026-04-20 14:08 51.40840 12.24240 462 ft 0 kts 356°
2026-04-20 14:10 51.40912 12.24231 464 ft 20 kts 355°
2026-04-20 14:11 51.41045 12.24220 466 ft 17 kts 15°
2026-04-20 14:11 51.41085 12.24377 466 ft 15 kts 87°
2026-04-20 14:11 51.41091 12.24534 467 ft 13 kts 85°
2026-04-20 14:11 51.41098 12.24669 469 ft 15 kts 85°
2026-04-20 14:12 51.41110 12.24926 473 ft 30 kts 84°
2026-04-20 14:12 51.41125 12.25206 475 ft 23 kts 86°
2026-04-20 14:12 51.41134 12.25440 471 ft 18 kts 85°
2026-04-20 14:12 51.41153 12.25604 473 ft 13 kts 59°
2026-04-20 14:13 51.41228 12.25618 474 ft 11 kts 355°
2026-04-20 14:13 51.41252 12.25616 475 ft 0 kts 356°
2026-04-20 14:13 51.41258 12.25615 475 ft 5 kts 356°
2026-04-20 14:13 51.41324 12.25606 475 ft 11 kts 349°
2026-04-20 14:14 51.41383 12.25520 472 ft 13 kts 300°
2026-04-20 14:14 51.41389 12.25344 471 ft 27 kts 266°
2026-04-20 14:14 51.41360 12.24648 473 ft 96 kts 266°
2026-04-20 14:14 51.41297 12.23285 466 ft 149 kts 264°
2026-04-20 14:15 51.41245 12.21503 896 ft 158 kts 269°
2026-04-20 14:15 51.41156 12.19778 1719 ft 155 kts 270°
2026-04-20 14:15 51.41013 12.18050 2276 ft 164 kts 256°
2026-04-20 14:15 51.40310 12.16449 2488 ft 192 kts 219°
2026-04-20 14:16 51.39011 12.15559 2672 ft 216 kts 195°
2026-04-20 14:16 51.37483 12.14889 2892 ft 241 kts 196°
2026-04-20 14:16 51.35782 12.14123 3276 ft 265 kts 196°
2026-04-20 14:16 51.34016 12.13319 4018 ft 274 kts 196°
2026-04-20 14:17 51.32171 12.12478 4882 ft 278 kts 195°
2026-04-20 14:17 51.30304 12.11629 5757 ft 281 kts 195°
2026-04-20 14:17 51.28417 12.10764 6541 ft 284 kts 195°
2026-04-20 14:17 51.26500 12.09883 7279 ft 287 kts 196°
2026-04-20 14:18 51.24570 12.08997 8003 ft 291 kts 196°
2026-04-20 14:18 51.22729 12.08154 8680 ft 294 kts 196°
2026-04-20 14:18 51.20751 12.07252 9387 ft 297 kts 196°
2026-04-20 14:18 51.18755 12.06340 10087 ft 300 kts 196°
2026-04-20 14:19 51.17416 12.05727 10379 ft 309 kts 196°
2026-04-20 14:19 51.15276 12.04750 10513 ft 331 kts 196°
2026-04-20 14:19 51.12999 12.03712 10644 ft 351 kts 196°
2026-04-20 14:19 51.09809 12.02254 11139 ft 365 kts 196°
2026-04-20 14:20 51.08161 12.01502 11531 ft 368 kts 196°
2026-04-20 14:20 51.05017 12.00074 12307 ft 372 kts 196°
2026-04-20 14:20 51.03251 11.99272 12733 ft 375 kts 196°
2026-04-20 14:20 51.00732 11.98123 13349 ft 378 kts 196°
2026-04-20 14:21 50.98192 11.96964 13953 ft 381 kts 196°
2026-04-20 14:21 50.95633 11.95799 14483 ft 385 kts 196°
2026-04-20 14:21 50.93053 11.94587 14994 ft 389 kts 199°
2026-04-20 14:21 50.90604 11.92865 15481 ft 392 kts 210°
2026-04-20 14:22 50.88328 11.90471 15959 ft 395 kts 217°
2026-04-20 14:22 50.86103 11.87876 16457 ft 399 kts 217°
2026-04-20 14:22 50.83860 11.85274 16943 ft 402 kts 217°
2026-04-20 14:22 50.81589 11.82650 17443 ft 406 kts 217°
2026-04-20 14:23 50.79296 11.80006 17919 ft 410 kts 216°
2026-04-20 14:23 50.76987 11.77347 18368 ft 413 kts 216°
2026-04-20 14:23 50.74527 11.74983 18721 ft 416 kts 205°
2026-04-20 14:23 50.71808 11.73416 19109 ft 417 kts 193°
2026-04-20 14:24 50.68942 11.72731 19497 ft 417 kts 180°
2026-04-20 14:24 50.66057 11.72949 19873 ft 416 kts 168°
2026-04-20 14:24 50.63259 11.74040 20245 ft 414 kts 158°
2026-04-20 14:24 50.60512 11.75485 20617 ft 417 kts 158°
2026-04-20 14:25 50.57750 11.76923 20999 ft 419 kts 159°
2026-04-20 14:25 50.54970 11.78360 21400 ft 422 kts 159°
2026-04-20 14:25 50.52175 11.79796 21806 ft 424 kts 158°
2026-04-20 14:25 50.49364 11.81240 22194 ft 427 kts 158°
2026-04-20 14:26 50.46572 11.82697 22567 ft 428 kts 155°
2026-04-20 14:26 50.43793 11.84540 22954 ft 429 kts 152°
2026-04-20 14:26 50.41085 11.86384 23345 ft 431 kts 152°
2026-04-20 14:26 50.38324 11.88255 23715 ft 434 kts 152°
2026-04-20 14:27 50.35545 11.90132 24033 ft 436 kts 153°
2026-04-20 14:27 50.32747 11.92015 24341 ft 439 kts 153°
2026-04-20 14:27 50.29934 11.93912 24638 ft 442 kts 153°
2026-04-20 14:27 50.27102 11.95823 24923 ft 444 kts 154°
2026-04-20 14:28 50.24259 11.97740 25207 ft 447 kts 154°
2026-04-20 14:28 50.21390 11.99671 25513 ft 449 kts 154°
2026-04-20 14:28 50.18515 12.01605 25805 ft 452 kts 155°
2026-04-20 14:28 50.15616 12.03555 26093 ft 455 kts 155°
2026-04-20 14:29 50.12702 12.05510 26385 ft 458 kts 156°
2026-04-20 14:29 50.09771 12.07466 26666 ft 460 kts 156°
2026-04-20 14:29 50.06812 12.09442 26955 ft 463 kts 156°
2026-04-20 14:29 50.03850 12.11420 27080 ft 462 kts 156°
2026-04-20 14:30 50.00910 12.13375 27100 ft 458 kts 157°
2026-04-20 14:30 49.97989 12.15314 27092 ft 457 kts 157°
2026-04-20 14:30 49.95065 12.17254 27088 ft 457 kts 157°
2026-04-20 14:30 49.92161 12.19186 27083 ft 457 kts 157°
2026-04-20 14:31 49.89220 12.21143 27078 ft 457 kts 157°
2026-04-20 14:31 49.86300 12.23082 27077 ft 457 kts 158°
2026-04-20 14:31 49.83368 12.25023 27073 ft 457 kts 158°
2026-04-20 14:31 49.80445 12.26945 27072 ft 458 kts 158°
2026-04-20 14:32 49.77512 12.28869 27072 ft 458 kts 158°
2026-04-20 14:32 49.74580 12.30797 27063 ft 458 kts 158°
2026-04-20 14:32 49.71754 12.33078 27063 ft 459 kts 148°
2026-04-20 14:32 49.69154 12.35952 27062 ft 459 kts 143°
2026-04-20 14:33 49.66617 12.38942 27056 ft 460 kts 143°
2026-04-20 14:33 49.64066 12.41927 27056 ft 460 kts 144°
2026-04-20 14:33 49.61510 12.44900 27057 ft 461 kts 144°
2026-04-20 14:33 49.58985 12.47827 27057 ft 461 kts 144°
2026-04-20 14:34 49.56420 12.50802 27056 ft 462 kts 144°
2026-04-20 14:34 49.53848 12.53785 27050 ft 462 kts 144°
2026-04-20 14:34 49.51280 12.56760 27055 ft 462 kts 144°
2026-04-20 14:34 49.48711 12.59736 27046 ft 463 kts 144°
2026-04-20 14:35 49.46137 12.62717 27048 ft 463 kts 144°
2026-04-20 14:35 49.43587 12.65742 27050 ft 464 kts 141°
2026-04-20 14:35 49.41222 12.69122 27042 ft 465 kts 137°
2026-04-20 14:35 49.38901 12.72593 27045 ft 466 kts 136°
2026-04-20 14:36 49.36667 12.76189 27044 ft 467 kts 134°
2026-04-20 14:36 49.34388 12.79733 27040 ft 465 kts 142°
2026-04-20 14:36 49.31919 12.82941 27041 ft 466 kts 137°
2026-04-20 14:36 49.29734 12.86622 27035 ft 469 kts 130°
2026-04-20 14:37 49.27720 12.90557 27012 ft 469 kts 130°
2026-04-20 14:37 49.25629 12.94353 26756 ft 465 kts 133°
2026-04-20 14:37 49.23464 12.98006 26494 ft 462 kts 135°
2026-04-20 14:37 49.21265 13.01571 26227 ft 459 kts 135°
2026-04-20 14:38 49.19103 13.05054 25985 ft 457 kts 135°
2026-04-20 14:38 49.16905 13.08637 25719 ft 455 kts 135°
2026-04-20 14:38 49.14773 13.12176 25458 ft 452 kts 134°
2026-04-20 14:38 49.12682 13.15692 24780 ft 452 kts 134°
2026-04-20 14:39 49.10588 13.19246 24220 ft 448 kts 134°
2026-04-20 14:39 49.08510 13.22777 23653 ft 445 kts 134°
2026-04-20 14:39 49.06458 13.26255 23059 ft 439 kts 134°
2026-04-20 14:39 49.04432 13.29682 22546 ft 431 kts 134°
2026-04-20 14:40 49.02443 13.33033 22075 ft 422 kts 134°
2026-04-20 14:40 49.00491 13.36306 21596 ft 413 kts 134°
2026-04-20 14:40 48.98575 13.39509 21140 ft 406 kts 134°
2026-04-20 14:40 48.96686 13.42656 20694 ft 399 kts 134°
2026-04-20 14:41 48.94827 13.45753 20250 ft 393 kts 134°
2026-04-20 14:41 48.92990 13.48805 19816 ft 388 kts 134°
2026-04-20 14:41 48.91180 13.51810 19372 ft 384 kts 134°
2026-04-20 14:41 48.89384 13.54791 18917 ft 380 kts 134°
2026-04-20 14:42 48.87607 13.57738 18479 ft 377 kts 134°
2026-04-20 14:42 48.85865 13.60630 17990 ft 374 kts 134°
2026-04-20 14:42 48.84119 13.63529 17539 ft 371 kts 134°
2026-04-20 14:42 48.82375 13.66418 17080 ft 369 kts 134°
2026-04-20 14:43 48.80650 13.69271 16630 ft 367 kts 134°
2026-04-20 14:43 48.78929 13.72113 16186 ft 364 kts 134°
2026-04-20 14:43 48.77220 13.74937 15730 ft 362 kts 134°
2026-04-20 14:43 48.75518 13.77741 15276 ft 360 kts 134°
2026-04-20 14:44 48.73828 13.80518 14832 ft 358 kts 135°
2026-04-20 14:44 48.72141 13.83283 14384 ft 356 kts 135°
2026-04-20 14:44 48.70468 13.86026 13938 ft 354 kts 134°
2026-04-20 14:44 48.68804 13.88753 13446 ft 351 kts 135°
2026-04-20 14:45 48.67150 13.91461 13008 ft 348 kts 134°
2026-04-20 14:45 48.65516 13.94136 12560 ft 345 kts 134°
2026-04-20 14:45 48.63893 13.96793 12099 ft 342 kts 135°
2026-04-20 14:45 48.62283 13.99430 11634 ft 340 kts 135°
2026-04-20 14:46 48.60685 14.02042 11182 ft 337 kts 135°
2026-04-20 14:46 48.59117 14.04601 10748 ft 335 kts 135°
2026-04-20 14:46 48.57553 14.07151 10504 ft 326 kts 135°
2026-04-20 14:46 48.56043 14.09617 10357 ft 314 kts 135°
2026-04-20 14:47 48.54573 14.12011 10071 ft 308 kts 135°
2026-04-20 14:47 48.53129 14.14355 9887 ft 304 kts 135°
2026-04-20 14:47 48.51685 14.16690 9753 ft 304 kts 135°
2026-04-20 14:48 48.48806 14.21344 9257 ft 302 kts 135°
2026-04-20 14:48 48.47374 14.23662 8627 ft 307 kts 135°
2026-04-20 14:48 48.45888 14.26065 7762 ft 320 kts 134°
2026-04-20 14:48 48.44344 14.28563 6887 ft 332 kts 134°
2026-04-20 14:49 48.42741 14.31150 6175 ft 339 kts 134°
2026-04-20 14:49 48.41175 14.33680 6047 ft 323 kts 134°
2026-04-20 14:49 48.39666 14.36112 5772 ft 313 kts 134°
2026-04-20 14:49 48.38192 14.38479 5479 ft 306 kts 134°
2026-04-20 14:50 48.36757 14.40786 5176 ft 299 kts 134°
2026-04-20 14:50 48.35363 14.43025 5012 ft 288 kts 134°
2026-04-20 14:50 48.34051 14.45137 5008 ft 272 kts 134°
2026-04-20 14:50 48.32769 14.47161 5008 ft 255 kts 139°
2026-04-20 14:51 48.31419 14.48650 5017 ft 235 kts 155°
2026-04-20 14:51 48.29909 14.49368 5009 ft 224 kts 178°
2026-04-20 14:51 48.28382 14.49221 5016 ft 218 kts 195°
2026-04-20 14:51 48.26893 14.48806 4981 ft 217 kts 196°
2026-04-20 14:52 48.25501 14.48087 4636 ft 209 kts 218°
2026-04-20 14:52 48.24522 14.46577 4342 ft 198 kts 246°
2026-04-20 14:52 48.24169 14.44628 4169 ft 194 kts 269°
2026-04-20 14:52 48.24105 14.42606 3927 ft 195 kts 270°
2026-04-20 14:53 48.24045 14.40576 3668 ft 191 kts 270°
2026-04-20 14:53 48.23984 14.38648 3417 ft 179 kts 269°
2026-04-20 14:53 48.23925 14.36852 3187 ft 167 kts 269°
2026-04-20 14:53 48.23871 14.35189 2973 ft 154 kts 270°
2026-04-20 14:54 48.23820 14.33644 2765 ft 143 kts 270°
2026-04-20 14:54 48.23764 14.32182 2583 ft 138 kts 269°
2026-04-20 14:54 48.23704 14.30765 2341 ft 135 kts 270°
2026-04-20 14:54 48.23666 14.29359 2209 ft 136 kts 271°
2026-04-20 14:55 48.23627 14.27944 2039 ft 137 kts 270°
2026-04-20 14:55 48.23570 14.26520 1826 ft 136 kts 269°
2026-04-20 14:55 48.23515 14.25100 1559 ft 135 kts 269°
2026-04-20 14:55 48.23490 14.23694 1402 ft 134 kts 268°
2026-04-20 14:56 48.23444 14.22310 1241 ft 133 kts 270°
2026-04-20 14:56 48.23397 14.20942 1055 ft 131 kts 269°
2026-04-20 14:56 48.23353 14.19645 984 ft 114 kts 268°
2026-04-20 14:56 48.23324 14.18736 979 ft 62 kts 267°
2026-04-20 14:57 48.23304 14.18212 982 ft 41 kts 267°
2026-04-20 14:57 48.23302 14.17921 986 ft 19 kts 290°
2026-04-20 14:57 48.23406 14.17904 981 ft 13 kts 15°
2026-04-20 14:57 48.23490 14.17939 987 ft 12 kts 15°
2026-04-20 14:58 48.23568 14.17970 980 ft 11 kts 15°
2026-04-20 14:58 48.23642 14.18001 980 ft 11 kts 18°
2026-04-20 14:58 48.23710 14.18076 988 ft 13 kts 60°
2026-04-20 14:58 48.23722 14.18196 981 ft 11 kts 86°
2026-04-20 14:59 48.23728 14.18357 980 ft 18 kts 88°
2026-04-20 14:59 48.23734 14.18533 980 ft 16 kts 86°
2026-04-20 14:59 48.23740 14.18708 988 ft 19 kts 86°
2026-04-20 14:59 48.23746 14.18900 978 ft 18 kts 87°
2026-04-20 15:00 48.23758 14.19053 985 ft 13 kts 58°
2026-04-20 15:00 48.23834 14.19075 975 ft 12 kts 356°
2026-04-20 15:00 48.23878 14.19131 974 ft 9 kts 81°
2026-04-20 15:00 48.23879 14.19146 973 ft 0 kts 85°